Weather History for KCNM - January, 2014

Change the Weather History Date:

Saturday, January 25, 2014

  Actual Average Record
Temperature  
Mean Temperature 42 °F -  
Max Temperature 60 °F 62 °F 80 °F (1952)
Min Temperature 24 °F 30 °F 11 °F (1978)
Degree Days  
Heating Degree Days 23    
Moisture  
Dew Point 11 °F    
Average Humidity 30    
Maximum Humidity 62    
Minimum Humidity 11    
Precipitation  
Precipitation 0.00 in - - ()
Sea Level Pressure  
Sea Level Pressure 30.10 in    
Wind  
Wind Speed 4 mph (ENE)    
Max Wind Speed 8 mph    
Max Gust Speed -    
Visibility 10 miles    
Events      
Averages and records for this station are not official NWS values.
T = Trace of Precipitation, MM = Missing Value Source: NWS Daily Summary

Daily Weather History Graph

Daily Weather History Graph

Search for Another Location

Airport or City:

Trip Planner

Search our weather history database for the weather conditions in past years. The results will help you decide how hot, cold, wet, or windy it might be!

Date:

Astronomy

Jan. 25, 2014 Rise Set
Actual Time 6:55 AM MST 5:24 PM MST
Civil Twilight 6:29 AM MST 5:50 PM MST
Nautical Twilight 5:59 AM MST 6:19 PM MST
Astronomical Twilight 5:30 AM MST 6:48 PM MST
Moon 1:31 AM MST (1/25) 12:25 PM MST (1/25)
Length of Visible Light 11h 21m
Length of Day
10h 28m
Waning Crescent, 33% of the Moon is Illuminated
Jan 25
Waning Crescent
Jan 30
New
Feb 6
First Quarter
Feb 14
Full
Feb 22
Last Quarter

Hourly Weather History & Observations

Time (MST) Temp. Windchill Dew Point Humidity Pressure Visibility Wind Dir Wind Speed Gust Speed Precip Events Conditions
12:53 AM 30.0 °F 25.2 °F 10.0 °F 43% 30.25 in 10.0 mi NNE 4.6 mph - N/A   Clear
1:53 AM 30.0 °F 26.5 °F 9.0 °F 41% 30.24 in 10.0 mi ESE 3.5 mph - N/A   Clear
2:53 AM 27.0 °F 21.6 °F 10.9 °F 51% 30.22 in 10.0 mi North 4.6 mph - N/A   Clear
3:53 AM 24.1 °F - 10.9 °F 57% 30.20 in 10.0 mi Calm Calm - N/A   Clear
4:53 AM 24.1 °F - 12.9 °F 62% 30.19 in 10.0 mi Calm Calm - N/A   Clear
5:53 AM 28.0 °F - 14.0 °F 56% 30.21 in 10.0 mi Calm Calm - N/A   Clear
6:53 AM 30.0 °F 26.5 °F 15.1 °F 54% 30.22 in 10.0 mi NNW 3.5 mph - N/A   Clear
7:53 AM 36.0 °F 31.1 °F 17.1 °F 46% 30.22 in 10.0 mi WNW 5.8 mph - N/A   Clear
8:53 AM 42.1 °F 39.2 °F 12.9 °F 31% 30.20 in 10.0 mi NNW 4.6 mph - N/A   Partly Cloudy
9:53 AM 46.0 °F 43.9 °F 14.0 °F 28% 30.22 in 10.0 mi ESE 4.6 mph - N/A   Partly Cloudy
10:53 AM 51.1 °F - 12.0 °F 21% 30.20 in 10.0 mi Variable 4.6 mph - N/A   Clear
11:53 AM 52.0 °F - 7.0 °F 16% 30.14 in 10.0 mi North 6.9 mph - N/A   Clear
12:53 PM 57.0 °F - 5.0 °F 12% 30.08 in 10.0 mi NNE 8.1 mph - N/A   Scattered Clouds
1:53 PM 60.1 °F - 3.9 °F 11% 30.05 in 10.0 mi NNE 3.5 mph - N/A   Mostly Cloudy
2:53 PM 60.1 °F - 6.1 °F 12% 30.03 in 10.0 mi Calm Calm - N/A   Overcast
3:53 PM 60.1 °F - 8.1 °F 13% 30.03 in 10.0 mi SSE 4.6 mph - N/A   Mostly Cloudy
4:53 PM 60.1 °F - 10.0 °F 14% 30.02 in 10.0 mi SE 5.8 mph - N/A   Overcast
5:53 PM 53.1 °F - 10.9 °F 19% 30.02 in 10.0 mi South 5.8 mph - N/A   Clear
6:53 PM 46.9 °F - 12.0 °F 24% 30.02 in 10.0 mi South 6.9 mph - N/A   Clear
7:53 PM 46.0 °F 43.9 °F 10.9 °F 24% 30.00 in 10.0 mi West 4.6 mph - N/A   Clear
8:53 PM 46.0 °F 43.1 °F 10.9 °F 24% 29.98 in 10.0 mi South 5.8 mph - N/A   Clear
9:53 PM 52.0 °F - 10.9 °F 19% 29.95 in 10.0 mi ESE 3.5 mph - N/A   Clear
10:53 PM 53.1 °F - 10.0 °F 18% 29.92 in 10.0 mi Variable 5.8 mph - N/A   Clear
11:53 PM 57.9 °F - 16.0 °F 19% 29.88 in 10.0 mi Variable 5.8 mph - N/A   Partly Cloudy